{"data":{"norad_id":68893,"epoch":"2026-09-19T18:23:38.682816Z","epoch_age_seconds":78759,"freshness":"FRESH","line1":"1 68893U 26096A   26262.76641994 -.00000127  00000+0  00000+0 0  9990","line2":"2 68893   0.0127 233.8379 0000213 352.5268 206.8252  1.00273057  1559","mean_motion":1.00273057,"eccentricity":2.13e-5,"inclination_deg":0.0127,"raan_deg":233.8379,"arg_perigee_deg":352.5268,"mean_anomaly_deg":206.8252,"bstar":0,"rev_number":155,"period_min":1436.0786866207,"perigee_km":35785.34027599,"apogee_km":35787.136478381,"semimajor_km":42164.375377185,"source":"CELESTRAK","updated_at":"2026-09-20T09:00:24.543060Z"}}